Wind_Speed
70 71 72 72 73 74 75 76 77 78 79 80 81 81 82 83 84 84 85 85 86 87 87 88 89 89 90 91 92 92 93 94 94 95 95 95 96 97 97 98 99 101 102 104 106 107 108 109 109 110 110 111 111 112 113 115 116 117 117 118 119 119 119 120 120 120 120 121 121 121 121 121 120 119 118 117 116 116 116 117 118 119 119 120 121 122
71 72 73 73 74 75 76 77 78 78 79 80 81 82 83 83 84 85 85 86 86 87 88 88 89 90 91 91 92 93 93 94 94 95 95 96 96 97 98 99 101 102 104 105 106 107 108 108 109 109 110 111 112 113 114 115 116 117 118 118 119 119 119 120 120 120 121 121 121 121 121 120 119 118 117 117 116 117 117 118 119 120 121 121 122 123
72 72 73 74 75 76 77 78 78 79 80 81 82 83 83 84 84 85 86 86 87 87 88 89 90 90 91 92 92 93 94 94 95 95 96 96 97 98 99 101 102 104 105 106 107 107 108 108 109 109 111 112 113 114 115 116 116 117 117 118 118 119 119 120 120 121 121 121 121 121 120 119 119 117 117 117 117 117 118 119 120 121 122 123 124 124
72 73 74 74 75 76 77 78 79 80 81 82 83 83 84 84 85 85 86 86 87 88 88 89 90 91 91 92 93 93 94 94 95 96 96 97 98 99 101 102 103 105 106 106 106 107 107 108 109 110 111 112 113 114 115 116 116 117 117 118 118 119 120 120 121 121 121 121 121 121 120 119 118 117 117 117 117 118 119 120 121 122 123 124 125 125
72 73 74 75 76 78 79 80 81 82 82 83 83 84 84 84 84 85 86 86 87 88 89 90 90 91 92 93 93 94 94 95 96 96 97 98 99 101 102 103 104 105 106 106 106 106 107 108 109 111 112 113 114 115 115 116 116 117 117 118 119 119 120 121 121 121 121 121 121 120 119 118 117 117 117 118 118 119 121 122 123 123 124 125 125 126
73 74 75 77 78 79 80 81 82 83 83 83 83 83 83 84 84 85 86 87 88 89 89 90 91 91 92 93 94 94 95 96 97 97 99 100 101 102 103 104 105 105 105 105 106 106 107 109 110 111 112 113 114 115 115 116 116 117 118 119 119 120 121 121 121 121 121 121 120 119 118 118 117 117 118 119 120 121 122 123 124 125 125 126 126 126
75 76 77 78 80 81 82 83 83 83 83 83 83 83 84 84 85 86 87 88 89 89 90 91 91 92 93 93 94 95 96 97 98 99 100 101 102 103 104 104 105 105 105 105 106 107 108 110 111 112 113 113 114 114 115 116 116 117 118 119 120 121 121 122 122 122 121 120 120 119 118 118 118 118 119 120 121 122 123 124 125 125 126 126 127 127
77 78 79 80 81 82 83 83 83 83 83 83 83 83 84 85 86 86 88 88 89 90 91 91 92 93 93 94 95 96 97 98 99 100 101 102 103 104 104 104 104 104 105 106 107 108 109 110 111 112 113 113 114 114 115 116 117 118 119 120 121 122 122 122 122 121 121 120 119 119 118 118 119 120 121 122 123 124 124 125 125 126 126 127 127 126
78 80 81 82 82 82 83 83 83 83 83 83 83 83 84 85 86 87 88 89 90 91 91 92 93 94 94 95 96 97 98 99 100 101 102 103 103 104 104 104 104 105 105 107 108 109 110 111 112 112 113 113 114 114 115 116 118 119 120 121 122 122 122 122 122 121 120 120 119 119 119 120 121 122 123 124 124 125 125 126 126 127 127 127 126 126
80 81 82 82 83 83 83 83 83 83 83 83 83 84 85 85 87 88 89 90 91 92 92 93 94 94 95 96 96 97 99 100 101 102 103 103 103 103 104 104 105 106 107 108 109 110 111 111 112 112 113 113 114 115 116 117 119 120 121 122 122 123 122 122 121 121 120 120 120 120 121 122 123 123 124 125 125 126 126 126 127 127 127 127 126 125
81 81 82 83 83 83 83 83 84 84 84 84 84 85 86 86 87 89 90 91 93 93 94 94 94 95 96 97 98 99 100 101 102 103 103 103 103 103 104 105 106 107 108 109 110 110 111 111 112 112 113 113 114 116 117 119 120 121 122 123 123 123 122 122 121 121 121 121 121 122 123 123 124 125 125 126 126 126 127 127 127 127 127 126 125 123
81 82 83 83 84 84 84 84 84 84 84 84 85 86 87 88 89 90 91 92 93 94 94 95 95 96 96 97 98 100 101 102 103 103 103 103 104 104 105 107 108 109 110 111 111 111 111 112 112 112 113 114 115 117 119 120 121 122 123 123 123 123 122 122 122 122 122 122 123 124 124 125 125 126 126 127 127 127 127 127 127 127 126 125 123 121
82 83 84 84 85 85 85 85 85 85 85 85 85 86 88 89 90 91 92 93 94 94 95 95 96 97 98 98 100 101 102 102 103 103 103 104 104 106 107 109 110 111 111 112 112 112 112 112 113 113 114 115 117 119 120 121 122 123 124 124 123 123 123 123 123 123 124 124 125 125 125 126 126 127 127 127 128 128 128 128 127 126 125 123 121 119
83 84 85 85 85 85 85 85 85 85 85 86 86 87 89 90 91 92 93 94 94 95 95 96 97 98 99 100 101 102 102 102 103 103 104 105 106 107 109 110 111 112 112 113 113 113 113 113 114 115 116 117 119 120 122 123 123 124 124 124 124 124 124 124 124 125 125 126 126 126 127 127 127 128 128 128 128 128 128 127 127 125 123 121 119 116
84 85 85 86 86 86 86 85 85 86 86 87 88 89 90 91 92 92 93 93 94 95 96 96 98 99 100 101 102 102 102 102 103 104 106 107 108 109 110 112 113 113 114 114 114 114 114 115 115 117 118 119 121 122 123 124 124 125 125 125 125 125 125 126 126 126 126 127 127 127 128 128 128 128 128 128 128 128 127 126 125 123 121 118 116 114
85 85 86 86 86 86 86 86 86 86 87 88 89 89 90 91 92 93 93 93 94 95 96 98 99 100 102 102 102 101 101 102 104 105 108 109 111 111 112 113 114 115 115 115 115 115 116 116 117 119 120 121 122 123 124 125 125 125 126 126 126 127 127 127 127 127 127 128 128 128 128 128 129 129 128 128 128 127 126 125 123 121 118 115 113 111
85 85 86 86 86 86 86 86 86 86 87 88 89 90 91 91 92 92 93 94 95 96 97 99 100 101 102 102 101 101 101 103 105 107 109 111 112 113 113 114 115 116 116 116 116 117 118 119 120 121 122 123 124 125 125 126 126 127 127 127 128 128 128 128 128 128 128 128 128 129 129 129 129 129 128 128 127 126 124 122 120 117 115 112 110 108
85 85 85 85 85 85 86 86 86 87 88 89 89 90 91 92 92 93 93 95 96 97 99 100 101 101 101 101 101 102 102 104 106 109 111 112 114 114 114 115 116 116 117 118 118 119 120 121 122 123 124 124 125 126 126 127 127 128 129 129 129 129 129 129 129 129 129 129 129 129 129 129 129 128 128 127 125 123 121 119 116 114 112 109 107 105
84 84 84 84 85 85 86 86 86 87 88 89 90 91 91 92 93 93 95 96 97 98 100 100 101 100 100 100 102 103 104 106 108 110 112 113 114 115 115 116 116 117 118 119 120 121 122 123 124 125 125 126 127 127 128 128 129 130 130 130 130 130 129 129 129 129 129 129 129 129 129 129 128 127 126 124 122 120 118 115 113 111 109 106 104 102
83 83 84 84 85 85 86 86 87 87 88 89 90 91 92 93 94 95 96 97 98 99 100 100 100 100 100 101 103 105 106 108 109 111 112 113 115 115 116 116 117 119 120 121 122 123 124 125 126 127 127 128 128 129 129 130 130 131 131 131 131 130 130 130 130 129 129 129 129 129 129 128 127 126 124 122 119 117 114 112 110 108 106 104 101 99
83 83 84 84 84 85 86 86 87 88 88 89 91 92 93 94 95 96 97 98 99 99 99 99 99 100 101 103 105 107 108 109 110 112 113 114 115 116 116 117 118 120 122 123 124 126 127 128 128 129 129 129 130 130 131 131 132 132 132 132 131 131 131 131 130 130 130 130 129 129 128 127 125 123 121 118 116 113 111 109 107 105 103 100 98 95
83 84 84 85 85 85 86 86 87 88 89 90 91 92 93 95 96 97 98 98 99 99 98 99 100 101 103 105 107 109 110 110 111 112 113 115 116 117 117 118 119 121 124 125 127 128 129 130 130 131 131 131 131 132 132 133 133 133 133 133 132 132 131 131 131 130 130 130 129 128 127 125 123 120 117 115 112 110 108 106 104 102 100 97 94 91
84 84 85 85 85 85 86 87 88 89 90 91 92 93 94 95 96 97 98 98 98 98 98 100 101 103 105 107 109 110 111 111 112 113 114 115 116 118 118 119 121 123 125 127 129 130 131 132 133 133 133 133 133 133 134 134 134 134 134 133 133 133 132 132 131 131 130 129 128 126 124 122 119 117 114 112 109 108 106 104 101 99 96 93 90 88
84 85 85 85 85 86 87 87 89 90 91 92 93 94 95 96 97 97 97 97 97 98 99 101 104 106 108 109 110 112 112 113 113 114 114 116 117 118 119 121 123 125 127 129 130 132 133 134 135 135 135 135 135 135 135 135 135 135 134 134 134 133 132 132 131 130 129 128 126 124 122 119 116 114 111 109 107 105 103 101 98 95 93 90 87 84
84 85 85 85 86 86 87 89 90 91 92 93 95 96 96 97 97 97 97 97 98 99 101 103 106 108 109 110 112 113 113 114 114 114 115 117 118 120 121 122 124 127 129 130 131 133 135 136 137 137 137 137 136 136 136 136 136 135 135 134 134 133 133 132 131 130 128 126 124 121 118 116 113 111 108 106 104 102 100 98 95 92 89 86 84 81
84 85 85 86 86 87 88 90 91 93 94 95 95 96 96 96 96 96 97 97 99 101 103 105 107 109 111 111 112 113 114 115 115 115 116 118 120 122 123 124 126 128 130 131 133 134 136 137 138 139 139 138 138 137 137 137 136 136 135 135 134 133 133 131 130 128 126 124 121 118 115 113 110 108 106 104 102 99 97 94 91 88 85 83 80 78
84 85 85 86 87 88 90 91 93 94 95 95 96 96 96 96 96 96 97 99 101 103 105 107 109 110 112 113 113 114 114 115 115 116 117 119 121 124 125 126 128 129 131 133 134 135 137 138 139 140 140 140 139 138 138 137 137 136 136 135 134 133 132 130 128 126 124 121 118 115 112 110 108 105 103 101 98 96 93 90 87 84 82 79 77 74
85 85 86 87 88 90 91 93 94 95 95 95 96 95 95 95 96 97 99 101 103 105 107 108 110 111 112 113 114 114 115 115 116 117 118 120 123 125 127 128 129 131 132 134 135 136 137 138 139 140 140 140 140 139 138 138 137 136 135 134 133 132 130 128 126 123 121 118 115 112 110 107 105 103 100 98 95 92 89 86 83 81 78 76 74 71
85 86 87 89 90 91 92 93 94 95 95 95 95 95 95 96 97 99 101 103 105 107 108 110 111 112 112 113 114 115 116 116 117 119 120 123 125 128 129 130 131 132 133 135 136 137 138 138 139 140 140 140 140 139 139 138 137 136 135 133 132 130 128 126 123 120 118 115 112 109 107 105 102 99 97 94 91 88 85 82 79 77 75 73 70 68
87 88 89 90 91 92 93 94 94 94 94 94 94 95 96 97 99 101 103 105 106 108 109 111 112 112 113 114 114 116 117 118 119 120 122 125 128 130 131 132 133 133 134 136 137 138 139 139 139 139 140 140 140 139 138 137 136 135 134 132 130 128 126 123 120 117 115 112 109 107 104 102 99 96 93 90 87 84 81 78 76 73 71 69 67 65
88 89 90 91 92 93 93 93 94 94 94 94 95 96 97 99 101 103 105 106 107 109 110 111 112 113 113 114 115 116 118 120 121 122 124 127 129 131 132 133 134 134 135 136 137 138 139 140 140 139 139 139 139 139 137 136 135 133 132 130 128 126 123 120 117 115 112 109 106 104 101 98 95 92 89 86 83 80 77 75 72 70 68 66 65 63
89 90 90 92 92 93 93 93 93 93 94 94 96 97 99 101 103 104 106 107 108 109 110 111 112 113 113 114 115 117 119 121 123 124 126 129 130 132 133 134 135 136 136 136 137 138 139 140 141 140 139 139 138 138 136 134 133 131 129 128 126 123 120 117 114 111 109 106 103 100 97 94 90 87 84 81 79 76 73 71 69 67 65 64 62 60
90 90 91 92 92 93 93 93 93 93 94 96 97 99 101 103 104 106 107 108 109 110 110 111 112 113 114 116 117 119 121 123 125 126 128 130 132 133 134 135 136 136 137 137 137 138 139 140 140 140 139 138 137 136 134 132 130 128 127 125 123 121 117 114 111 108 105 102 99 96 92 89 86 83 80 77 75 72 70 68 66 64 62 61 59 57
90 91 92 92 92 93 93 93 93 94 96 97 99 101 102 104 106 107 108 109 110 110 110 111 112 113 115 117 119 121 123 125 127 128 130 131 132 133 135 135 136 137 138 138 138 139 139 139 140 140 139 137 135 133 131 130 127 125 123 121 120 117 114 110 107 104 101 98 94 91 87 84 81 78 76 73 71 68 66 64 63 61 60 58 56 55
91 91 92 92 92 92 93 93 94 96 97 99 100 102 104 105 107 108 109 110 110 110 111 111 112 113 115 117 120 123 125 127 129 130 131 132 133 134 135 136 137 137 138 139 139 139 140 140 139 139 138 137 134 131 128 126 124 122 119 117 115 112 109 106 103 100 96 93 89 85 82 79 76 74 72 69 67 65 63 61 60 59 57 55 54 52
91 91 92 92 92 93 93 94 95 97 98 100 102 103 105 106 108 109 109 109 110 110 111 112 113 115 116 118 121 124 126 128 130 131 132 133 134 135 136 137 137 137 138 139 139 139 140 139 138 136 135 134 132 129 125 122 120 118 115 113 110 107 104 101 98 94 91 87 84 80 77 75 72 70 68 66 64 62 60 59 57 56 55 53 51 50
91 91 92 92 93 93 94 95 97 98 100 101 103 105 106 107 108 108 109 109 110 110 111 113 114 116 118 120 123 125 128 130 131 132 133 133 134 135 136 137 137 137 138 139 139 139 139 138 137 134 132 130 128 126 123 119 116 114 111 108 105 102 99 95 92 88 85 82 78 76 73 71 69 67 65 63 61 59 58 56 55 54 52 51 49 48
91 91 92 92 93 94 95 96 98 99 101 103 104 106 107 107 108 108 108 109 109 111 112 114 116 118 120 123 125 127 129 131 132 133 134 134 135 135 136 137 137 137 137 138 138 138 137 136 134 132 129 126 123 120 118 115 113 110 107 103 100 97 93 90 86 83 80 77 74 72 69 67 66 64 62 60 58 57 55 54 53 51 50 48 47 45
91 92 92 93 94 95 96 97 99 101 102 104 105 106 107 107 107 107 108 109 110 111 113 115 117 119 122 125 127 128 130 131 132 133 134 135 135 136 136 137 137 137 137 136 136 135 134 133 130 128 125 122 119 116 113 111 108 106 102 98 94 90 87 84 81 78 75 73 70 68 66 64 63 61 59 57 56 54 53 52 50 49 47 46 44 43
91 92 93 94 94 95 97 98 100 102 103 105 106 106 106 106 106 107 108 109 111 112 114 117 119 121 124 126 128 129 130 131 132 133 134 135 135 135 136 136 136 136 136 135 134 132 130 128 125 122 119 117 114 112 109 106 103 100 96 93 89 85 82 79 77 74 72 69 67 65 64 62 60 58 56 55 53 52 51 49 48 46 45 43 42 40
91 92 93 94 95 97 98 100 102 103 104 105 105 105 105 105 106 107 109 110 112 114 116 119 121 124 126 128 129 130 131 132 133 133 134 134 135 135 135 135 135 135 134 133 131 129 126 123 120 117 114 112 110 107 104 101 97 94 90 87 84 81 78 75 73 71 69 67 64 62 61 59 57 56 54 52 51 50 48 47 45 44 42 40 39 37
91 92 93 94 96 98 100 101 102 103 104 104 104 104 104 105 106 108 109 111 114 116 119 121 123 126 128 129 130 131 132 132 133 134 134 134 135 135 135 135 134 133 132 130 128 125 121 118 115 112 110 108 106 103 99 95 91 87 85 82 80 77 75 72 70 68 66 64 62 60 58 56 55 53 51 50 48 47 46 44 43 41 39 38 36 35
91 92 94 95 97 99 100 102 102 103 103 103 103 103 104 105 107 109 110 113 115 118 121 123 125 127 129 130 131 132 132 133 133 134 134 134 135 135 134 133 132 130 128 127 124 121 117 113 110 108 106 103 100 97 93 89 85 83 80 78 76 75 73 70 67 65 63 61 59 57 55 54 52 50 49 47 46 45 43 42 40 38 37 35 34 33
91 93 95 97 98 100 101 101 101 102 102 102 102 103 105 106 108 110 112 114 117 120 122 125 126 128 129 131 132 133 133 134 134 134 134 134 134 134 133 132 130 127 124 122 119 116 113 110 107 104 101 97 94 90 86 84 82 80 78 76 74 72 70 67 65 62 60 58 56 54 53 51 49 48 46 45 44 42 41 39 37 36 34 33 31 30
93 94 96 98 99 99 100 100 100 100 101 101 102 104 106 107 109 111 114 116 119 122 124 126 127 129 130 131 132 133 134 134 134 134 134 134 133 132 130 128 126 123 120 117 114 111 109 107 104 100 95 91 87 85 83 81 79 78 76 74 71 69 67 64 62 60 57 56 54 52 50 49 47 45 44 43 41 40 38 36 35 33 32 31 29 28
94 95 97 98 98 99 99 99 99 100 100 102 103 105 106 108 111 113 115 118 121 123 125 126 127 129 130 131 132 133 134 135 135 135 134 133 132 129 127 124 121 118 115 112 110 107 105 103 99 94 89 86 83 81 80 79 78 76 73 71 69 66 64 61 59 57 55 53 51 49 48 46 45 43 42 40 39 37 36 34 33 31 30 29 27 26
95 96 97 97 98 98 98 98 99 99 100 102 104 106 108 110 112 115 117 120 122 124 125 126 128 129 130 131 132 133 134 135 135 135 134 132 129 127 123 120 116 113 110 108 106 104 101 97 92 88 85 83 81 80 79 77 75 73 71 68 65 63 61 58 56 54 52 51 49 47 46 44 43 41 40 38 37 35 34 32 31 30 28 27 25 24
95 95 96 96 96 96 97 97 98 99 101 103 105 107 109 111 114 116 119 121 123 124 125 127 128 129 130 131 132 133 134 134 134 134 132 129 126 123 119 116 112 109 107 105 103 100 95 91 87 83 82 81 80 79 77 75 73 70 68 65 62 60 58 55 53 52 50 48 47 45 44 42 41 39 38 37 35 34 32 31 29 28 26 25 24 22
94 94 95 95 95 95 96 97 98 100 101 103 106 108 111 113 116 118 120 121 123 124 125 126 128 129 130 131 132 133 133 133 132 131 129 126 122 119 115 112 109 107 105 102 99 94 90 85 82 81 79 79 78 77 75 72 70 67 64 62 59 57 55 53 51 50 48 46 45 44 42 41 39 38 36 35 33 32 31 29 28 26 25 23 22 21
93 93 93 93 94 94 96 97 98 100 102 105 107 110 112 115 117 119 120 122 123 124 125 126 127 129 130 131 132 133 132 132 130 128 125 121 118 114 111 109 107 105 103 99 94 89 85 83 80 78 77 76 75 73 72 69 67 64 62 59 57 55 53 51 50 48 46 45 43 42 40 39 37 36 34 33 32 30 29 28 26 25 23 22 21 20
91 91 92 92 93 94 96 97 99 101 103 106 109 111 114 116 118 119 120 122 123 124 125 126 127 129 130 131 132 132 131 129 127 124 121 117 113 110 108 106 105 103 99 94 89 85 83 81 79 77 75 73 71 70 68 66 64 62 59 57 55 53 51 50 48 46 45 43 42 40 39 37 36 34 33 32 30 29 27 26 25 23 22 21 20 19
Wind_Direction
290 290 291 292 292 292 293 293 294 294 295 295 296 296 297 298 298 299 299 299 299 299 300 300 300 300 301 301 301 302 302 302 303 303 304 304 304 305 305 306 306 307 308 308 309 310 310 311 311 311 311 311 311 311 311 311 311 311 312 312 312 313 314 314 315 316 316 316 316 315 315 315 315 315 315 315 315 315 315 315 316 316 317 318 318 318
291 291 292 292 293 293 293 294 294 295 295 296 297 297 298 298 299 299 299 299 299 299 300 300 300 301 301 301 302 302 302 303 303 304 304 305 305 305 306 307 307 308 308 309 310 310 311 311 311 311 311 311 311 311 311 311 311 312 312 313 313 314 315 315 316 316 316 316 315 315 315 315 315 316 316 315 316 316 316 316 317 318 318 319 319 319
291 292 292 293 293 293 294 294 295 295 296 297 297 298 298 299 299 299 299 299 299 299 300 300 300 301 301 302 302 302 303 303 304 304 305 305 306 306 307 307 308 308 309 310 310 311 311 311 311 311 311 311 311 311 311 311 312 312 313 313 314 315 316 316 316 316 316 315 315 315 316 316 316 316 316 316 316 316 317 318 318 319 319 319 320 320
292 292 292 293 293 294 294 295 295 296 297 297 298 298 298 298 299 299 299 299 299 299 300 300 301 301 302 302 303 303 303 304 304 305 305 306 306 307 307 308 308 309 310 310 310 311 311 311 311 310 310 311 311 311 311 312 312 313 314 314 315 316 316 316 316 316 315 315 316 316 316 316 316 316 316 316 317 318 318 319 319 320 320 320 320 320
292 292 293 293 294 294 295 295 296 297 297 297 298 298 298 298 298 298 299 299 299 300 300 301 301 302 302 303 303 303 304 304 305 305 306 306 307 307 308 308 309 309 310 310 310 310 310 310 310 310 310 311 311 311 312 312 313 314 315 315 316 316 316 316 316 315 316 316 316 316 316 316 316 317 317 318 318 319 319 320 320 320 320 320 320 320
292 293 293 294 294 295 295 296 296 297 297 298 298 298 298 298 298 299 299 299 300 300 301 301 302 302 303 303 303 304 304 305 305 305 306 307 307 308 308 309 309 310 310 310 310 310 310 310 310 310 310 311 311 312 312 313 314 315 316 316 317 316 316 316 316 316 316 316 316 316 316 317 317 317 318 319 319 320 320 320 320 320 320 320 320 320
293 293 294 294 295 295 296 296 297 297 297 298 298 298 298 298 299 299 299 300 300 301 301 302 302 303 303 303 304 304 305 305 305 306 306 307 308 308 309 309 309 310 310 310 310 310 310 310 310 310 311 311 312 312 313 314 315 316 317 317 317 316 316 316 316 316 316 317 317 317 317 318 318 319 319 320 320 320 320 320 320 320 320 320 320 320
293 294 294 295 295 296 296 297 297 297 298 298 298 298 299 299 299 299 299 300 300 301 302 302 303 303 303 304 304 305 305 305 306 306 307 307 308 309 309 309 310 310 310 310 310 310 310 310 310 311 311 312 312 313 314 315 316 317 317 317 316 316 316 316 316 317 317 317 317 318 318 319 319 320 320 320 320 320 320 320 320 320 320 320 320 320
294 294 295 295 296 296 297 297 297 297 298 298 298 298 299 299 299 299 300 300 301 302 302 303 303 303 304 304 304 305 305 306 306 307 307 308 308 309 309 310 310 310 310 310 310 310 310 310 311 311 312 312 313 314 315 316 317 317 317 316 316 316 316 317 317 317 317 318 318 319 319 320 320 320 320 320 320 320 320 320 320 320 320 320 319 319
294 295 296 296 296 296 297 297 297 298 298 298 298 298 299 299 299 300 300 301 302 302 303 303 303 304 304 304 305 305 306 306 307 307 308 308 309 309 310 310 310 310 310 310 310 310 310 311 311 312 313 313 314 316 316 317 317 317 317 316 316 317 317 317 317 318 318 319 319 320 320 321 321 321 320 320 320 320 320 320 320 320 320 319 319 319
295 296 296 296 296 297 297 297 297 297 298 298 298 298 299 299 300 300 301 302 302 303 303 303 304 304 304 305 305 306 306 307 307 308 308 309 309 310 310 310 310 310 310 310 310 310 311 311 312 313 314 315 316 316 317 317 317 317 317 317 317 317 317 318 318 319 319 320 320 321 321 321 321 321 320 320 320 320 320 320 320 320 319 319 319 318
295 296 296 296 296 296 296 297 297 298 298 298 298 299 299 299 300 301 301 302 303 303 304 304 304 304 305 305 306 306 307 307 308 309 309 309 310 310 310 310 310 310 310 310 310 311 311 312 313 314 315 316 317 317 317 317 317 317 317 317 317 318 318 319 319 320 320 321 321 321 321 321 321 320 320 320 320 320 320 320 320 319 319 319 318 318
296 296 296 296 296 296 296 297 297 298 298 298 299 299 299 300 301 301 302 303 303 304 304 304 304 305 305 306 306 307 308 308 309 309 310 310 310 310 310 310 310 310 310 311 311 312 312 313 314 315 316 317 317 317 317 317 317 317 318 318 318 319 319 320 320 321 321 321 321 321 321 321 320 320 320 320 320 320 320 319 319 319 319 318 318 318
296 296 296 295 296 296 296 297 297 298 298 298 299 299 300 301 301 302 303 303 304 304 304 304 305 305 306 307 307 308 309 309 309 310 310 310 310 310 310 310 311 311 311 312 312 313 313 314 315 316 317 317 318 318 318 318 318 318 318 319 319 320 320 321 321 321 321 321 321 321 321 320 320 320 320 320 320 319 319 319 319 318 318 318 317 317
295 295 295 295 296 296 297 297 298 298 298 299 299 300 300 301 302 303 303 303 304 304 304 305 305 306 306 307 308 309 309 310 310 310 310 310 310 310 311 311 311 312 312 313 313 314 315 316 316 317 318 318 318 318 318 318 318 319 319 320 320 321 321 321 321 321 321 321 321 321 320 320 320 320 320 319 319 319 319 319 318 318 318 317 317 317
295 295 295 295 296 296 297 298 298 298 299 299 300 300 301 302 302 303 303 304 304 304 304 305 306 306 307 308 309 309 310 310 310 310 311 311 311 311 312 312 313 313 313 314 314 315 316 317 317 318 318 318 318 318 319 319 319 320 320 321 321 321 321 321 321 321 321 321 321 320 320 320 320 319 319 319 319 319 318 318 318 318 317 317 317 316
295 295 295 296 296 297 298 298 299 299 299 300 300 301 301 302 303 303 303 304 304 304 305 306 307 307 308 309 309 310 310 310 311 311 311 311 311 312 313 313 314 314 314 315 316 316 317 317 318 318 318 318 319 319 319 320 320 321 321 321 321 321 321 321 321 321 321 321 320 320 320 320 319 319 319 319 318 318 318 318 317 317 317 316 316 316
295 295 296 296 297 298 298 299 299 300 300 300 300 301 302 302 303 303 303 304 304 305 306 307 307 308 308 309 309 310 310 311 311 311 311 312 312 313 313 314 315 315 315 316 316 317 317 318 318 318 319 319 319 320 320 321 321 321 321 321 321 321 321 321 321 321 320 320 320 320 319 319 319 319 318 318 318 318 317 317 317 317 316 316 316 315
295 296 296 297 298 298 299 299 300 300 300 300 301 301 302 303 303 303 304 305 305 306 307 307 308 308 309 309 310 310 310 311 311 312 312 313 313 314 314 315 315 316 316 317 317 317 318 318 318 319 319 319 320 320 321 321 321 321 321 321 321 321 321 321 320 320 320 320 320 319 319 319 319 318 318 318 317 317 317 317 317 316 316 316 315 315
296 297 297 298 299 299 299 300 300 300 300 301 301 302 302 303 303 304 305 305 306 307 307 308 308 309 309 309 310 310 311 311 312 312 313 314 314 314 315 316 316 317 317 317 318 318 318 319 319 319 320 320 321 321 321 321 321 321 321 321 321 321 321 320 320 320 320 320 319 319 319 318 318 318 317 317 317 317 317 317 316 316 316 315 315 314
297 297 298 299 299 300 300 300 300 300 300 301 302 302 303 303 304 305 306 306 307 307 308 308 309 309 309 310 310 310 311 312 313 313 314 314 315 315 316 316 317 317 318 318 318 319 319 319 319 320 320 321 321 321 322 321 321 321 321 321 321 321 320 320 320 320 320 319 319 319 318 318 318 317 317 317 317 317 317 317 316 316 315 315 314 314
298 298 299 300 300 300 300 300 300 300 301 302 302 303 303 304 305 306 306 307 308 308 308 309 309 309 310 310 310 311 312 312 313 314 315 315 315 316 316 317 317 318 318 318 319 319 319 320 320 320 321 321 321 322 322 321 321 321 321 321 321 320 320 320 320 320 319 319 319 318 318 317 317 317 317 317 317 317 317 316 316 316 315 315 314 314
298 299 300 300 300 300 300 300 300 301 301 302 303 303 304 305 305 306 307 307 308 308 309 309 310 310 310 311 311 312 312 313 314 314 315 315 316 316 317 317 318 318 319 319 319 320 320 320 320 321 321 321 322 322 321 321 321 321 321 321 320 320 320 320 320 319 319 319 318 318 317 317 317 317 317 317 317 317 317 316 316 315 315 315 314 314
299 300 300 300 300 300 300 300 301 301 302 303 303 304 305 305 306 307 307 308 308 309 309 310 310 310 311 311 312 313 313 314 314 315 316 316 316 317 317 318 319 319 319 319 320 320 320 320 321 321 321 321 321 321 321 321 321 321 321 320 320 320 320 320 319 319 319 318 318 317 317 317 317 317 317 317 317 317 316 316 315 315 315 315 315 315
299 300 300 300 300 300 300 300 301 302 302 303 304 305 305 306 307 307 308 308 309 309 310 310 311 311 312 312 313 313 314 314 315 316 316 316 317 317 318 318 319 319 320 320 320 320 321 321 321 321 321 321 321 321 321 321 321 321 320 320 320 320 320 319 319 318 318 318 317 317 317 317 317 317 317 317 317 317 316 316 315 315 315 315 315 315
299 300 300 300 300 300 300 301 301 302 303 304 304 305 306 307 307 308 308 308 309 310 310 311 311 312 312 313 314 314 314 315 315 316 316 317 317 318 318 319 319 320 320 320 320 321 321 321 321 321 321 321 321 321 321 321 321 320 320 320 320 320 319 319 318 318 318 317 317 317 317 317 318 318 317 317 317 316 316 316 315 315 315 315 315 315
299 299 300 300 300 300 301 301 302 303 304 304 305 306 307 307 308 308 308 309 310 310 311 311 312 312 313 314 314 314 315 315 316 316 316 317 317 318 319 319 320 320 320 320 321 321 321 321 320 321 321 321 321 321 321 320 320 320 320 320 319 319 319 318 318 318 317 317 317 317 317 318 318 318 317 317 317 316 316 315 315 315 315 315 315 315
299 299 299 300 300 300 301 302 303 304 304 305 306 306 307 307 308 308 309 309 310 311 311 312 313 313 314 314 314 315 315 315 316 316 317 317 318 318 319 320 320 320 320 321 321 321 321 320 320 320 320 320 320 320 320 320 320 320 320 319 319 319 318 318 318 317 317 317 317 318 318 318 318 318 317 317 316 316 316 315 315 315 315 315 315 314
299 299 300 300 300 301 302 303 304 304 305 306 306 307 307 308 308 309 309 310 311 311 312 313 313 314 314 314 315 315 315 315 316 317 317 318 318 319 320 320 320 320 321 320 320 320 320 320 320 320 320 320 320 320 320 320 320 319 319 319 318 318 318 318 317 317 317 318 318 318 318 318 318 317 317 317 316 316 315 315 316 315 315 315 315 314
299 299 300 300 301 302 303 303 304 305 305 306 306 307 307 308 309 309 310 311 311 312 313 313 314 314 314 314 315 315 315 316 316 317 318 318 319 319 320 320 320 320 320 320 320 320 320 320 320 320 320 320 320 320 319 319 319 319 319 318 318 318 318 317 317 317 318 318 318 318 318 318 317 317 317 316 316 316 315 316 316 316 315 315 315 314
299 300 300 301 301 302 303 304 304 305 305 306 306 307 308 308 309 310 310 311 312 313 313 313 314 314 314 315 315 315 316 316 317 318 318 319 319 319 320 320 320 320 320 320 320 319 319 319 320 320 320 319 319 319 319 319 319 318 318 318 318 318 317 317 317 318 318 318 318 318 318 318 317 317 316 316 316 316 316 316 316 316 315 315 315 315
299 300 300 301 302 303 304 304 305 305 306 306 307 307 308 309 309 310 311 312 312 313 313 313 314 314 314 315 315 315 316 317 317 318 319 319 319 319 320 320 320 320 320 320 320 319 319 319 319 319 319 319 319 319 319 318 318 318 318 318 318 317 317 317 317 318 318 318 318 318 317 317 317 317 316 316 316 316 316 316 316 316 315 315 315 315
300 300 301 302 303 303 304 304 305 305 306 307 307 308 309 309 310 311 312 312 313 313 313 314 314 314 315 315 315 316 316 317 318 318 319 319 319 319 319 319 319 319 320 320 320 320 319 319 319 319 319 319 319 318 318 318 318 318 318 318 317 317 317 317 318 318 318 318 318 317 317 317 317 316 316 316 316 316 316 316 316 316 315 315 315 315
300 301 302 302 303 303 304 305 305 306 306 307 308 308 309 310 311 311 312 312 313 313 313 314 314 314 315 315 316 316 316 317 318 318 319 319 319 319 319 319 319 319 319 319 320 320 320 320 320 319 319 319 318 318 318 318 318 318 318 317 317 317 317 317 318 318 318 318 317 317 317 317 317 316 316 316 316 316 317 317 316 316 315 315 316 316
300 301 302 303 303 304 304 305 305 306 307 307 308 309 310 311 311 312 312 313 313 313 313 314 314 315 315 315 316 316 316 317 318 318 318 319 319 319 319 319 319 319 319 319 320 320 320 320 319 319 319 318 318 318 318 318 318 318 318 317 317 317 317 317 318 318 317 317 317 317 317 317 317 316 316 316 317 317 317 317 316 316 315 316 316 317
301 302 302 303 303 304 304 305 306 306 307 308 309 310 310 311 312 312 312 313 313 313 314 314 314 315 315 315 315 316 316 317 318 318 318 318 319 319 319 319 319 319 319 319 320 320 320 319 319 319 318 318 318 318 318 318 318 318 317 317 317 317 317 317 317 317 317 317 317 317 317 317 317 317 317 317 317 317 317 317 316 316 316 317 317 317
301 302 302 303 303 304 305 305 306 307 308 309 309 310 311 311 312 312 313 313 313 314 314 314 314 315 315 315 315 316 316 317 317 318 318 318 319 319 319 319 319 319 319 319 319 319 319 319 318 318 318 318 318 318 318 318 318 318 318 318 317 317 317 318 318 317 317 317 317 317 318 317 317 317 317 317 318 318 318 317 316 316 317 317 318 318
301 302 303 303 304 304 305 306 307 308 308 309 310 311 311 312 312 312 313 313 313 313 314 314 314 314 314 315 315 316 316 317 317 318 318 318 319 319 319 319 319 319 319 319 319 319 319 318 318 318 318 318 318 318 318 318 318 318 318 318 318 318 318 318 318 318 318 318 318 318 318 318 318 318 318 318 318 318 318 317 317 317 318 318 318 317
302 302 303 303 304 305 306 306 307 308 309 310 310 311 311 312 312 312 312 313 313 313 313 313 313 314 314 315 315 316 317 317 317 318 318 318 318 319 319 319 319 319 319 319 319 318 318 318 318 318 318 318 318 318 318 318 318 318 318 318 318 318 318 318 318 318 318 319 319 319 318 318 318 318 319 319 319 319 318 318 318 318 319 319 318 317
302 302 303 304 305 305 306 307 308 309 309 310 311 311 311 312 312 312 312 312 312 313 313 313 313 314 314 315 316 316 317 317 317 318 318 318 318 319 319 319 319 319 319 319 318 318 318 318 318 318 318 319 319 319 319 319 318 318 318 318 318 319 319 319 319 319 319 319 319 319 319 319 319 319 319 320 320 319 319 318 319 319 319 318 317 316
302 303 304 304 305 306 307 308 308 309 310 310 311 311 311 311 312 312 312 312 312 312 312 313 313 314 315 315 316 316 317 317 317 318 318 318 318 319 319 319 319 319 319 318 318 318 318 318 318 319 319 320 320 319 319 319 319 319 319 319 319 320 320 320 320 320 320 320 320 320 320 320 320 320 320 320 320 319 319 319 320 320 319 318 317 316
303 304 304 305 306 306 307 308 309 309 310 310 311 311 311 311 311 311 311 311 311 312 312 313 314 314 315 315 316 316 317 317 317 318 318 318 319 319 319 319 319 319 318 318 318 318 318 319 319 320 320 320 320 319 319 319 319 320 320 320 320 321 321 321 321 320 320 320 320 320 320 320 321 321 321 321 321 320 320 320 320 320 319 318 317 316
303 304 305 305 306 307 307 308 309 309 310 310 310 310 310 310 310 310 311 311 311 312 313 313 314 314 315 316 316 317 317 317 318 318 318 319 319 319 319 319 319 318 318 318 318 319 319 320 321 321 321 321 320 320 320 320 321 321 321 321 321 321 321 321 321 321 320 321 321 321 321 321 322 322 322 322 321 321 321 321 321 320 318 317 317 317
304 304 305 305 306 307 308 308 309 309 309 310 309 309 309 310 310 310 310 311 311 312 313 314 314 315 315 316 316 317 317 317 318 318 319 319 319 319 319 318 318 318 318 318 319 320 321 321 322 322 321 321 321 321 321 322 322 323 322 322 322 321 321 321 321 321 321 321 322 322 322 322 323 323 323 322 322 322 322 322 321 320 319 318 318 318
304 304 305 305 306 307 308 308 309 309 309 309 309 309 309 309 309 310 310 311 312 312 313 314 314 315 315 316 316 317 317 317 318 318 319 319 319 319 318 318 318 318 319 320 320 321 322 322 322 322 322 322 322 323 323 324 324 323 323 323 322 321 321 321 321 321 322 322 323 323 323 324 324 324 324 323 323 323 323 322 321 320 320 319 319 319
303 304 305 306 306 307 307 308 308 308 308 308 308 308 308 309 309 310 311 311 312 313 313 314 315 315 315 316 316 317 317 317 318 318 319 319 319 318 318 318 319 319 320 321 322 323 323 323 323 323 323 324 324 325 325 325 324 323 323 322 322 321 321 321 322 322 323 323 324 324 325 325 325 325 325 324 324 324 324 323 322 322 321 321 321 321
303 304 305 305 306 306 307 307 307 307 307 307 307 307 308 309 309 310 311 311 312 313 314 314 315 315 316 316 316 317 317 317 318 318 318 318 318 318 318 319 320 321 322 323 323 324 324 324 324 324 325 326 326 326 326 325 324 323 323 322 322 322 322 322 323 323 324 325 325 326 326 326 326 326 326 325 325 325 325 324 324 323 323 323 323 323
303 304 304 305 305 306 306 306 306 306 306 306 307 307 308 309 310 310 311 312 312 313 314 314 315 315 316 316 316 317 317 317 318 318 318 318 318 318 319 320 321 323 324 324 324 325 325 325 326 327 327 328 327 327 326 325 324 323 322 322 322 322 323 323 324 325 326 326 327 327 327 327 327 327 327 327 327 326 326 326 326 326 325 326 325 326
303 303 304 304 305 305 305 305 305 305 305 306 307 307 308 309 310 311 311 312 313 314 314 315 315 315 316 316 316 317 317 318 318 318 318 318 318 319 320 322 323 324 325 325 325 326 326 327 328 328 329 328 328 327 326 325 324 323 323 323 323 323 324 325 326 327 327 328 328 328 328 328 328 328 328 328 328 328 328 328 328 328 328 328 328 329
302 303 304 304 304 304 304 304 304 305 305 306 307 308 308 309 310 311 312 312 313 314 314 315 315 315 315 316 316 317 317 318 318 318 318 318 319 320 322 323 325 326 326 326 326 327 328 329 330 330 330 329 328 327 326 325 324 324 324 324 325 325 326 327 328 328 329 329 329 329 329 330 329 330 330 330 330 330 330 330 330 331 331 331 332 332
302 303 303 303 303 303 303 303 304 304 305 306 307 308 309 310 311 311 312 313 314 314 315 315 315 315 315 316 316 317 317 318 317 317 318 319 320 322 324 325 326 326 327 327 328 329 331 331 331 331 330 330 329 328 327 326 326 325 326 326 327 327 328 329 329 330 330 330 331 331 331 330 331 331 331 332 332 332 332 332 333 333 334 335 335 336
Height
10613 10612 10610 10609 10608 10605 10603 10602 10600 10598 10594 10593 10591 10588 10586 10583 10580 10577 10574 10571 10568 10565 10562 10559 10556 10553 10549 10546 10543 10539 10536 10533 10530 10526 10523 10519 10516 10511 10508 10503 10499 10494 10489 10485 10480 10475 10469 10464 10459 10454 10449 10444 10439 10434 10430 10425 10420 10415 10409 10404 10398 10393 10387 10381 10376 10371 10365 10359 10354 10349 10343 10337 10331 10326 10320 10314 10308 10302 10296 10289 10282 10275 10269 10262 10256 10249
10609 10608 10606 10604 10603 10601 10598 10597 10596 10594 10591 10588 10586 10584 10581 10578 10575 10572 10569 10566 10563 10560 10557 10554 10551 10548 10544 10541 10538 10534 10531 10528 10524 10521 10518 10514 10510 10506 10501 10498 10493 10488 10484 10479 10474 10469 10463 10458 10453 10448 10443 10438 10433 10428 10423 10419 10413 10408 10403 10397 10391 10386 10380 10374 10369 10363 10358 10353 10347 10341 10335 10329 10324 10318 10312 10306 10299 10293 10286 10279 10272 10266 10259 10253 10247 10241
10605 10603 10601 10600 10599 10596 10594 10592 10591 10589 10587 10584 10582 10579 10576 10573 10570 10567 10564 10561 10558 10555 10552 10549 10546 10543 10539 10535 10532 10529 10525 10522 10518 10515 10511 10508 10504 10500 10496 10492 10487 10483 10478 10473 10468 10463 10458 10452 10447 10442 10437 10432 10427 10423 10418 10413 10407 10401 10396 10390 10384 10379 10373 10368 10362 10356 10351 10346 10339 10334 10328 10321 10316 10309 10303 10297 10290 10283 10276 10269 10263 10256 10251 10244 10238 10232
10601 10599 10597 10596 10594 10592 10590 10588 10586 10584 10583 10580 10578 10574 10572 10569 10565 10562 10559 10556 10553 10550 10547 10544 10541 10538 10534 10530 10526 10523 10519 10516 10513 10509 10506 10503 10499 10494 10490 10486 10481 10477 10472 10468 10463 10457 10452 10447 10441 10436 10431 10426 10421 10416 10411 10406 10401 10395 10389 10383 10378 10371 10366 10361 10355 10350 10344 10338 10332 10326 10320 10314 10308 10301 10294 10288 10281 10274 10267 10261 10254 10248 10242 10236 10230 10224
10597 10595 10593 10591 10589 10588 10586 10584 10582 10580 10578 10576 10573 10570 10567 10564 10560 10557 10554 10551 10548 10545 10542 10539 10536 10533 10529 10525 10521 10518 10514 10511 10507 10503 10500 10497 10493 10489 10484 10480 10476 10471 10467 10462 10457 10452 10446 10441 10436 10431 10426 10421 10416 10411 10406 10400 10394 10388 10382 10376 10370 10365 10359 10354 10348 10343 10337 10331 10324 10318 10312 10306 10299 10292 10285 10278 10271 10265 10259 10253 10246 10240 10234 10228 10222 10216
10593 10591 10589 10587 10585 10583 10581 10579 10578 10576 10573 10570 10568 10565 10562 10559 10555 10552 10549 10546 10543 10540 10537 10534 10531 10528 10524 10520 10516 10512 10508 10504 10501 10498 10494 10491 10487 10483 10479 10474 10470 10466 10461 10456 10451 10446 10441 10436 10431 10426 10420 10415 10410 10405 10399 10393 10388 10381 10375 10369 10364 10358 10353 10347 10341 10335 10329 10323 10316 10310 10303 10296 10289 10283 10276 10269 10263 10257 10251 10244 10239 10233 10226 10220 10214 10208
10588 10587 10585 10583 10581 10579 10577 10574 10573 10571 10568 10565 10562 10559 10556 10553 10550 10547 10543 10541 10538 10535 10532 10529 10526 10523 10519 10515 10511 10506 10503 10499 10495 10491 10488 10485 10481 10478 10473 10468 10464 10459 10455 10451 10446 10441 10436 10431 10425 10420 10414 10409 10404 10399 10393 10387 10381 10374 10368 10363 10357 10351 10346 10339 10334 10328 10321 10314 10308 10301 10294 10287 10280 10273 10267 10261 10255 10249 10243 10237 10231 10225 10219 10213 10207 10201
10584 10582 10581 10579 10576 10574 10572 10569 10568 10566 10563 10560 10557 10554 10550 10547 10544 10541 10538 10536 10533 10530 10527 10523 10520 10517 10514 10510 10506 10501 10497 10493 10489 10486 10482 10479 10475 10471 10467 10463 10458 10454 10449 10445 10441 10436 10431 10425 10419 10414 10409 10403 10398 10392 10386 10380 10374 10368 10362 10356 10350 10344 10338 10332 10326 10319 10313 10306 10299 10291 10284 10278 10271 10265 10259 10253 10247 10241 10235 10229 10223 10217 10211 10205 10199 10193
10579 10578 10576 10574 10572 10569 10567 10564 10563 10561 10559 10556 10552 10549 10545 10541 10538 10535 10533 10530 10528 10524 10522 10518 10514 10511 10508 10504 10501 10497 10492 10488 10484 10480 10476 10473 10469 10465 10461 10456 10452 10448 10444 10439 10435 10430 10425 10419 10414 10408 10403 10397 10391 10386 10379 10373 10367 10361 10355 10349 10343 10337 10331 10324 10318 10311 10303 10296 10289 10282 10275 10269 10263 10257 10251 10245 10239 10233 10228 10222 10216 10209 10204 10198 10192 10186
10576 10573 10571 10569 10567 10566 10563 10559 10557 10555 10554 10551 10548 10544 10541 10537 10533 10529 10526 10524 10521 10519 10516 10513 10509 10505 10501 10498 10495 10492 10488 10483 10478 10474 10471 10467 10463 10459 10454 10449 10446 10441 10437 10433 10429 10424 10419 10414 10408 10403 10397 10391 10385 10379 10373 10367 10361 10354 10348 10342 10335 10329 10322 10316 10308 10301 10294 10287 10280 10273 10267 10261 10255 10249 10243 10238 10232 10226 10220 10214 10208 10202 10196 10190 10184 10178
10571 10569 10567 10564 10562 10560 10558 10556 10553 10550 10548 10546 10542 10539 10536 10533 10529 10526 10521 10518 10515 10513 10509 10506 10503 10500 10496 10491 10488 10484 10481 10477 10472 10468 10463 10460 10456 10452 10447 10443 10438 10434 10430 10426 10422 10417 10413 10408 10402 10396 10390 10384 10378 10372 10366 10360 10354 10348 10341 10334 10327 10320 10313 10306 10299 10292 10284 10278 10271 10265 10259 10253 10248 10242 10236 10229 10224 10218 10212 10206 10200 10194 10188 10182 10176 10171
10566 10564 10562 10560 10558 10556 10553 10551 10548 10546 10543 10540 10537 10533 10529 10527 10524 10521 10518 10513 10509 10506 10503 10499 10496 10494 10491 10486 10482 10478 10474 10469 10465 10461 10456 10453 10449 10444 10440 10435 10431 10426 10422 10418 10413 10409 10405 10400 10394 10389 10383 10378 10371 10365 10359 10353 10346 10339 10333 10326 10318 10311 10304 10296 10289 10283 10276 10269 10263 10258 10251 10246 10240 10234 10228 10222 10216 10210 10204 10198 10192 10186 10180 10174 10169 10163
10562 10560 10558 10555 10553 10551 10549 10546 10544 10541 10538 10536 10532 10528 10524 10521 10519 10516 10513 10508 10505 10501 10498 10494 10490 10486 10484 10481 10477 10473 10468 10463 10458 10453 10449 10445 10442 10438 10433 10428 10423 10418 10414 10409 10404 10400 10397 10393 10386 10380 10374 10369 10364 10358 10351 10345 10338 10331 10324 10316 10309 10301 10294 10287 10280 10274 10268 10261 10256 10250 10244 10238 10233 10226 10220 10214 10208 10202 10196 10190 10184 10179 10173 10167 10161 10156
10558 10556 10553 10551 10548 10546 10544 10542 10539 10536 10533 10530 10527 10523 10520 10516 10514 10511 10507 10503 10499 10496 10493 10489 10484 10481 10478 10474 10470 10466 10461 10456 10451 10446 10441 10437 10434 10431 10427 10421 10414 10409 10406 10403 10397 10391 10388 10383 10378 10372 10366 10361 10356 10349 10343 10337 10329 10323 10314 10307 10299 10292 10284 10278 10272 10266 10260 10254 10248 10243 10236 10230 10224 10218 10212 10206 10200 10194 10188 10183 10177 10171 10166 10159 10154 10149
10553 10551 10548 10546 10543 10541 10539 10537 10534 10531 10528 10524 10522 10518 10515 10511 10508 10505 10502 10498 10493 10489 10486 10483 10478 10474 10471 10468 10465 10460 10454 10449 10443 10438 10434 10429 10425 10423 10419 10413 10406 10401 10397 10394 10389 10383 10378 10374 10369 10364 10359 10353 10348 10341 10335 10328 10321 10313 10305 10297 10289 10283 10276 10270 10264 10259 10253 10247 10241 10234 10228 10223 10216 10210 10204 10198 10192 10186 10181 10175 10169 10164 10158 10153 10147 10141
10548 10546 10544 10541 10538 10536 10534 10532 10529 10526 10523 10519 10516 10513 10510 10506 10503 10499 10496 10493 10488 10484 10481 10477 10473 10468 10463 10461 10459 10456 10450 10443 10436 10431 10426 10421 10416 10413 10411 10406 10398 10391 10387 10384 10379 10374 10369 10365 10360 10355 10350 10345 10339 10333 10326 10319 10311 10303 10295 10288 10281 10274 10269 10263 10257 10251 10246 10239 10233 10227 10221 10214 10208 10202 10196 10190 10184 10179 10173 10168 10162 10156 10151 10145 10139 10134
10544 10541 10539 10536 10534 10531 10529 10527 10524 10521 10518 10514 10511 10508 10504 10501 10498 10494 10491 10487 10483 10479 10475 10471 10468 10463 10458 10453 10449 10448 10445 10439 10431 10424 10419 10413 10408 10404 10402 10398 10391 10384 10378 10374 10369 10365 10361 10356 10351 10346 10341 10336 10330 10323 10316 10308 10301 10293 10286 10279 10273 10267 10261 10255 10249 10244 10238 10232 10225 10219 10213 10206 10200 10194 10188 10183 10177 10171 10166 10160 10154 10149 10143 10138 10132 10126
10539 10537 10534 10532 10529 10526 10524 10521 10519 10516 10512 10509 10505 10502 10499 10496 10493 10489 10485 10481 10478 10473 10469 10465 10461 10457 10453 10448 10443 10440 10438 10433 10426 10419 10413 10406 10401 10396 10393 10389 10383 10376 10370 10366 10361 10356 10352 10347 10342 10338 10333 10327 10320 10313 10306 10298 10291 10284 10277 10271 10265 10259 10253 10248 10242 10236 10229 10223 10217 10211 10204 10198 10191 10186 10180 10174 10169 10163 10158 10153 10147 10141 10136 10130 10124 10119
10534 10532 10530 10527 10524 10521 10519 10516 10513 10510 10506 10503 10499 10496 10493 10490 10487 10484 10480 10476 10472 10468 10464 10459 10454 10451 10447 10443 10438 10434 10431 10428 10421 10414 10407 10401 10394 10389 10385 10381 10374 10368 10361 10356 10353 10348 10343 10338 10333 10328 10323 10317 10310 10303 10296 10289 10282 10275 10269 10263 10256 10251 10244 10239 10233 10227 10221 10214 10208 10202 10195 10189 10183 10178 10172 10166 10161 10156 10150 10145 10139 10134 10128 10123 10117 10111
10529 10527 10525 10523 10519 10516 10513 10511 10508 10505 10501 10498 10494 10491 10488 10484 10481 10478 10474 10470 10466 10462 10458 10454 10449 10445 10441 10436 10432 10428 10424 10421 10414 10408 10401 10394 10388 10383 10379 10374 10368 10359 10353 10347 10343 10338 10334 10329 10323 10317 10311 10306 10299 10293 10286 10279 10273 10266 10259 10253 10248 10241 10236 10229 10224 10218 10211 10206 10199 10193 10186 10180 10174 10169 10163 10158 10153 10148 10142 10136 10131 10126 10120 10114 10109 10104
10524 10522 10520 10518 10516 10512 10508 10505 10502 10499 10496 10493 10489 10486 10482 10479 10475 10471 10468 10464 10460 10456 10451 10448 10443 10439 10434 10430 10425 10421 10418 10414 10408 10401 10394 10388 10381 10376 10373 10368 10362 10354 10346 10339 10333 10328 10323 10318 10313 10307 10301 10295 10289 10283 10276 10270 10263 10256 10250 10244 10238 10232 10226 10220 10214 10208 10202 10196 10189 10184 10178 10171 10166 10160 10155 10149 10144 10139 10134 10128 10123 10118 10112 10106 10101 10096
10520 10517 10515 10513 10511 10507 10503 10499 10496 10494 10491 10488 10484 10480 10476 10473 10469 10465 10461 10458 10454 10449 10445 10441 10437 10433 10429 10424 10419 10414 10411 10407 10403 10396 10389 10383 10374 10368 10364 10361 10355 10347 10339 10332 10326 10319 10312 10306 10301 10296 10291 10285 10279 10273 10267 10261 10254 10248 10241 10234 10228 10223 10216 10211 10204 10198 10193 10186 10180 10174 10168 10163 10157 10151 10146 10141 10136 10131 10125 10120 10114 10109 10104 10099 10094 10089
10516 10513 10510 10508 10505 10502 10498 10494 10491 10488 10485 10482 10479 10475 10471 10468 10464 10460 10456 10452 10448 10444 10439 10435 10431 10426 10422 10418 10413 10408 10403 10399 10395 10389 10383 10376 10369 10363 10358 10354 10348 10339 10331 10324 10318 10312 10303 10295 10289 10284 10280 10275 10269 10263 10258 10251 10245 10238 10232 10225 10219 10213 10207 10201 10195 10189 10183 10177 10171 10165 10159 10154 10148 10143 10138 10133 10128 10123 10117 10111 10106 10101 10096 10091 10087 10083
10511 10508 10505 10503 10499 10496 10493 10489 10486 10483 10479 10477 10473 10470 10466 10463 10459 10456 10451 10448 10443 10438 10434 10429 10424 10419 10414 10409 10405 10400 10395 10391 10388 10383 10376 10369 10362 10356 10351 10348 10341 10333 10323 10316 10310 10304 10296 10286 10279 10273 10269 10264 10259 10254 10248 10241 10236 10229 10223 10216 10210 10204 10198 10191 10186 10179 10174 10168 10162 10156 10150 10145 10139 10134 10129 10124 10119 10114 10108 10103 10098 10093 10088 10084 10080 10076
10506 10503 10500 10498 10494 10491 10488 10484 10481 10478 10474 10471 10468 10464 10461 10457 10453 10449 10446 10442 10438 10433 10428 10423 10418 10412 10407 10403 10398 10393 10388 10384 10380 10375 10369 10362 10354 10348 10343 10340 10336 10328 10318 10309 10303 10296 10289 10279 10269 10263 10258 10254 10249 10244 10239 10232 10226 10219 10213 10207 10201 10194 10188 10183 10176 10171 10164 10159 10153 10147 10141 10136 10131 10126 10121 10116 10111 10106 10100 10095 10090 10086 10081 10077 10073 10069
10502 10499 10496 10493 10489 10486 10482 10479 10475 10472 10469 10466 10463 10459 10455 10451 10448 10443 10439 10435 10431 10427 10422 10416 10411 10405 10400 10396 10391 10386 10381 10376 10372 10368 10363 10357 10349 10341 10335 10331 10328 10321 10313 10303 10296 10289 10282 10273 10263 10254 10248 10243 10239 10235 10229 10223 10216 10210 10204 10198 10192 10186 10179 10173 10168 10161 10156 10150 10144 10139 10133 10128 10123 10118 10113 10108 10103 10098 10093 10088 10083 10079 10074 10071 10067 10063
10497 10494 10491 10488 10484 10480 10477 10473 10470 10467 10463 10460 10456 10453 10450 10446 10441 10437 10433 10429 10425 10421 10416 10411 10405 10399 10393 10388 10383 10379 10374 10369 10364 10360 10356 10350 10343 10336 10329 10324 10319 10313 10306 10297 10289 10282 10276 10268 10259 10249 10240 10234 10229 10226 10221 10214 10208 10201 10195 10189 10183 10178 10171 10165 10159 10153 10146 10141 10136 10131 10125 10120 10116 10111 10106 10100 10095 10090 10085 10081 10076 10073 10069 10065 10061 10058
10492 10489 10486 10483 10479 10475 10471 10468 10465 10461 10458 10454 10451 10447 10444 10441 10436 10431 10426 10423 10419 10414 10409 10404 10399 10394 10388 10382 10377 10372 10368 10363 10358 10353 10348 10342 10335 10329 10323 10318 10312 10306 10299 10291 10282 10274 10268 10262 10255 10246 10236 10228 10221 10216 10211 10206 10199 10193 10187 10181 10175 10169 10163 10156 10150 10144 10138 10133 10128 10123 10118 10113 10108 10103 10098 10093 10088 10083 10078 10074 10070 10066 10063 10059 10056 10052
10487 10484 10481 10477 10474 10470 10466 10463 10459 10456 10453 10449 10445 10442 10438 10435 10431 10426 10421 10416 10413 10408 10402 10397 10393 10388 10383 10377 10371 10365 10361 10356 10353 10348 10342 10334 10326 10319 10314 10309 10304 10298 10293 10286 10276 10266 10258 10252 10248 10242 10234 10224 10215 10208 10203 10198 10192 10186 10179 10173 10166 10160 10154 10148 10142 10136 10130 10125 10120 10115 10110 10105 10100 10095 10090 10086 10081 10076 10072 10068 10064 10061 10057 10054 10050 10047
10482 10479 10475 10471 10468 10465 10462 10458 10454 10451 10448 10444 10440 10436 10433 10429 10425 10421 10416 10411 10406 10402 10396 10391 10386 10381 10376 10371 10364 10358 10352 10348 10344 10341 10336 10329 10320 10313 10307 10302 10296 10289 10284 10280 10273 10262 10251 10242 10236 10232 10227 10219 10211 10203 10196 10189 10184 10178 10172 10166 10159 10152 10145 10139 10134 10128 10123 10118 10113 10108 10103 10098 10093 10088 10083 10079 10074 10070 10066 10063 10059 10056 10052 10048 10045 10042
10476 10473 10469 10466 10463 10460 10457 10453 10450 10446 10443 10439 10435 10431 10428 10423 10419 10415 10410 10406 10401 10396 10391 10385 10379 10374 10370 10366 10360 10353 10346 10340 10336 10333 10329 10323 10314 10306 10301 10296 10289 10283 10276 10273 10268 10261 10250 10238 10229 10222 10217 10211 10204 10196 10189 10183 10176 10170 10164 10158 10151 10144 10138 10132 10126 10121 10116 10111 10106 10101 10096 10091 10086 10081 10077 10073 10068 10064 10061 10058 10054 10051 10047 10043 10040 10038
10471 10468 10464 10461 10458 10455 10452 10448 10445 10441 10438 10434 10430 10426 10422 10418 10413 10409 10404 10400 10395 10390 10385 10379 10373 10368 10363 10359 10354 10349 10342 10336 10330 10325 10321 10316 10308 10300 10294 10290 10284 10276 10269 10264 10259 10254 10247 10237 10226 10217 10210 10203 10196 10189 10183 10177 10170 10163 10157 10151 10144 10137 10130 10124 10119 10114 10109 10104 10099 10094 10089 10084 10080 10076 10071 10066 10063 10059 10056 10053 10049 10046 10042 10039 10036 10033
10467 10463 10460 10456 10453 10450 10446 10443 10439 10436 10432 10428 10424 10420 10416 10412 10408 10403 10398 10394 10389 10384 10379 10374 10368 10361 10355 10350 10345 10340 10335 10330 10325 10320 10315 10309 10302 10294 10288 10283 10277 10270 10263 10256 10249 10244 10238 10230 10221 10213 10204 10196 10188 10182 10176 10170 10164 10158 10150 10143 10136 10130 10124 10118 10113 10108 10103 10098 10093 10088 10083 10079 10074 10070 10066 10061 10058 10054 10051 10048 10044 10041 10038 10034 10032 10029
10462 10458 10455 10451 10448 10444 10441 10438 10434 10431 10427 10423 10419 10414 10410 10406 10401 10397 10392 10388 10383 10378 10373 10368 10363 10356 10350 10344 10337 10331 10326 10322 10318 10314 10309 10303 10296 10289 10281 10275 10269 10264 10257 10249 10241 10234 10228 10221 10213 10205 10197 10189 10181 10173 10168 10162 10157 10151 10145 10138 10131 10124 10118 10112 10107 10102 10097 10092 10087 10083 10078 10074 10069 10065 10061 10057 10053 10050 10048 10044 10040 10037 10033 10031 10028 10026
10457 10453 10449 10446 10443 10439 10436 10433 10429 10425 10421 10418 10413 10409 10405 10400 10396 10391 10386 10381 10376 10371 10366 10362 10357 10352 10346 10340 10333 10326 10319 10314 10310 10307 10303 10297 10291 10283 10276 10268 10262 10256 10251 10242 10234 10226 10219 10212 10204 10197 10190 10183 10174 10167 10160 10154 10149 10144 10138 10132 10125 10119 10113 10107 10102 10097 10091 10086 10082 10078 10073 10069 10064 10060 10056 10053 10049 10046 10043 10039 10036 10033 10029 10027 10025 10023
10452 10448 10444 10441 10438 10434 10431 10427 10423 10420 10416 10412 10408 10404 10399 10395 10390 10385 10380 10376 10371 10366 10360 10355 10350 10345 10341 10336 10330 10324 10317 10310 10305 10300 10295 10290 10284 10278 10270 10262 10255 10249 10243 10236 10227 10219 10211 10204 10196 10189 10183 10176 10169 10161 10154 10148 10142 10136 10131 10125 10119 10113 10107 10102 10096 10091 10086 10081 10076 10073 10068 10064 10059 10056 10051 10048 10045 10042 10039 10036 10032 10029 10026 10024 10021 10019
10447 10443 10439 10436 10433 10429 10426 10422 10418 10414 10411 10406 10402 10398 10394 10389 10384 10379 10374 10369 10364 10360 10355 10349 10344 10339 10334 10329 10324 10319 10313 10307 10301 10294 10288 10283 10277 10271 10263 10256 10248 10241 10235 10229 10221 10213 10205 10197 10189 10181 10174 10168 10162 10156 10149 10142 10136 10130 10124 10118 10113 10107 10101 10096 10091 10086 10081 10076 10072 10068 10063 10059 10055 10051 10048 10044 10041 10038 10035 10031 10028 10025 10023 10021 10018 10016
10442 10438 10434 10431 10428 10424 10421 10417 10413 10409 10405 10401 10397 10393 10388 10384 10379 10374 10369 10364 10359 10354 10349 10344 10339 10334 10329 10323 10318 10313 10308 10301 10295 10289 10283 10276 10270 10264 10257 10249 10241 10233 10227 10221 10214 10208 10199 10192 10184 10176 10169 10162 10156 10149 10143 10136 10129 10123 10117 10111 10106 10101 10096 10091 10086 10081 10076 10071 10067 10063 10059 10055 10051 10047 10043 10041 10038 10034 10031 10028 10024 10022 10019 10018 10015 10013
10438 10434 10430 10426 10423 10419 10416 10411 10408 10403 10399 10396 10392 10388 10383 10378 10373 10369 10364 10359 10354 10349 10345 10340 10334 10329 10324 10319 10314 10308 10302 10296 10289 10283 10277 10270 10264 10258 10251 10244 10236 10228 10220 10213 10207 10200 10193 10186 10179 10171 10164 10157 10151 10144 10137 10130 10124 10117 10111 10105 10100 10096 10091 10086 10081 10076 10071 10067 10063 10058 10054 10051 10047 10043 10039 10037 10034 10031 10027 10024 10021 10019 10017 10014 10013 10010
10433 10429 10425 10421 10418 10414 10411 10406 10403 10399 10394 10391 10386 10382 10378 10373 10368 10363 10358 10354 10349 10344 10340 10335 10330 10324 10319 10314 10309 10304 10298 10291 10284 10278 10271 10265 10258 10252 10245 10238 10231 10223 10215 10207 10199 10193 10186 10179 10173 10166 10159 10151 10144 10138 10131 10124 10118 10111 10105 10099 10094 10089 10085 10080 10075 10071 10066 10063 10059 10054 10051 10047 10043 10039 10036 10033 10030 10027 10024 10021 10019 10016 10014 10012 10009 10007
10428 10424 10420 10416 10413 10409 10405 10401 10398 10394 10390 10386 10381 10376 10371 10367 10363 10358 10353 10348 10343 10338 10334 10329 10324 10318 10312 10307 10303 10298 10293 10287 10280 10273 10266 10259 10252 10246 10239 10232 10224 10217 10209 10201 10193 10185 10179 10173 10167 10160 10153 10145 10138 10131 10124 10118 10112 10106 10100 10094 10089 10084 10080 10076 10071 10066 10062 10058 10054 10051 10047 10043 10039 10036 10033 10030 10027 10024 10021 10018 10016 10014 10012 10009 10007 10005
10423 10419 10415 10411 10408 10404 10400 10396 10393 10389 10384 10381 10376 10371 10366 10363 10358 10353 10348 10343 10338 10332 10328 10323 10318 10312 10306 10299 10294 10289 10284 10279 10273 10267 10260 10253 10246 10238 10231 10224 10217 10209 10203 10194 10186 10178 10171 10166 10160 10154 10147 10139 10131 10124 10118 10111 10106 10100 10094 10089 10084 10079 10075 10071 10067 10063 10059 10054 10051 10047 10043 10039 10036 10033 10030 10027 10024 10021 10018 10016 10014 10012 10009 10007 10004 10003
10418 10414 10410 10406 10403 10399 10396 10392 10388 10384 10379 10375 10371 10366 10361 10358 10353 10349 10343 10338 10333 10327 10322 10317 10312 10306 10300 10294 10288 10281 10276 10270 10264 10259 10253 10246 10238 10231 10224 10217 10209 10202 10195 10188 10180 10173 10165 10159 10153 10147 10140 10133 10126 10118 10112 10106 10100 10095 10089 10084 10080 10075 10071 10066 10063 10059 10055 10051 10048 10044 10040 10036 10033 10030 10027 10024 10021 10018 10016 10014 10012 10009 10007 10005 10003 10001
10413 10409 10405 10402 10398 10394 10391 10387 10383 10379 10375 10371 10366 10361 10357 10353 10348 10344 10339 10333 10328 10322 10317 10311 10306 10300 10294 10287 10281 10275 10269 10262 10256 10251 10244 10238 10231 10224 10218 10210 10203 10195 10188 10181 10174 10167 10159 10153 10146 10139 10133 10127 10120 10113 10106 10100 10095 10090 10085 10081 10076 10071 10067 10063 10059 10056 10052 10048 10044 10041 10037 10034 10031 10028 10024 10022 10019 10016 10014 10012 10009 10008 10005 10003 10001 9999
10408 10404 10401 10398 10394 10391 10386 10383 10379 10374 10370 10366 10361 10357 10353 10348 10343 10339 10334 10328 10323 10317 10311 10306 10301 10295 10288 10281 10274 10268 10262 10254 10248 10243 10237 10231 10224 10218 10211 10204 10197 10190 10183 10176 10169 10161 10154 10147 10139 10133 10127 10120 10114 10108 10101 10096 10090 10085 10081 10077 10073 10068 10064 10060 10056 10053 10049 10044 10041 10038 10034 10031 10028 10025 10022 10019 10016 10014 10012 10010 10008 10005 10003 10001 9999 9998
10404 10400 10396 10393 10390 10386 10383 10379 10374 10370 10366 10361 10357 10353 10348 10343 10339 10334 10329 10324 10319 10313 10307 10301 10296 10291 10284 10276 10269 10263 10256 10248 10241 10234 10228 10222 10216 10209 10203 10197 10191 10184 10178 10171 10163 10156 10148 10141 10134 10128 10121 10114 10108 10102 10097 10091 10086 10081 10077 10073 10069 10065 10061 10057 10053 10049 10046 10042 10038 10035 10031 10029 10026 10023 10020 10017 10014 10013 10010 10008 10006 10004 10002 10000 9998 9996
10399 10396 10393 10389 10386 10383 10378 10374 10371 10366 10361 10357 10352 10348 10343 10339 10334 10329 10324 10318 10314 10308 10303 10296 10291 10284 10278 10271 10264 10258 10251 10244 10236 10228 10221 10214 10208 10201 10195 10189 10184 10178 10172 10165 10157 10149 10142 10135 10129 10122 10115 10108 10102 10097 10092 10088 10083 10078 10074 10070 10066 10062 10058 10054 10050 10046 10043 10039 10036 10032 10029 10026 10023 10021 10018 10015 10013 10011 10008 10006 10004 10002 10000 9999 9997 9995
10396 10393 10389 10386 10382 10378 10374 10370 10366 10362 10358 10353 10348 10343 10339 10334 10330 10326 10319 10314 10308 10303 10298 10291 10285 10279 10272 10265 10259 10253 10246 10239 10231 10224 10216 10209 10202 10195 10189 10183 10177 10171 10164 10158 10151 10143 10136 10129 10123 10116 10110 10103 10098 10093 10088 10084 10079 10075 10071 10067 10063 10059 10055 10051 10048 10044 10040 10036 10033 10030 10027 10024 10021 10019 10016 10014 10011 10009 10007 10004 10003 10001 9999 9998 9996 9994
10393 10389 10386 10382 10378 10374 10370 10366 10362 10358 10353 10348 10344 10339 10334 10330 10326 10321 10316 10310 10304 10299 10293 10286 10280 10273 10266 10259 10253 10246 10240 10233 10226 10218 10211 10203 10196 10190 10183 10176 10170 10164 10157 10150 10144 10137 10130 10123 10117 10111 10106 10099 10094 10089 10084 10080 10076 10072 10068 10064 10060 10056 10052 10048 10044 10041 10038 10034 10031 10028 10025 10022 10019 10017 10014 10012 10009 10008 10006 10003 10001 9999 9998 9996 9995 9993
10388 10385 10382 10378 10374 10370 10366 10362 10358 10353 10349 10344 10340 10335 10331 10326 10321 10316 10311 10306 10300 10294 10288 10282 10276 10269 10262 10254 10248 10241 10234 10228 10221 10213 10205 10198 10191 10185 10178 10171 10164 10158 10150 10143 10137 10131 10124 10117 10111 10106 10101 10096 10091 10086 10081 10077 10073 10069 10065 10061 10058 10053 10049 10046 10042 10039 10036 10033 10029 10026 10023 10021 10018 10015 10013 10011 10008 10006 10004 10002 10001 9999 9997 9996 9994 9993
10384 10381 10378 10374 10370 10366 10362 10358 10354 10349 10345 10341 10336 10331 10327 10321 10316 10311 10306 10301 10295 10289 10283 10276 10269 10264 10258 10251 10243 10236 10229 10222 10215 10208 10201 10193 10187 10181 10174 10167 10159 10153 10145 10138 10131 10124 10118 10112 10106 10101 10096 10093 10088 10083 10079 10074 10070 10066 10062 10058 10054 10051 10047 10043 10039 10036 10033 10031 10028 10024 10021 10019 10016 10014 10011 10009 10007 10005 10003 10001 9999 9998 9996 9995 9993 9992